EW7917 Weather Reports


Display with metric or nautical units.
time (UTC)temp
F
wind
direction
speed
MPH
gust
MPH
rain 1hr
in
rain 24hr
in
rain mn
in
humidity
%
barometer
mb
20181020010052 48 198 2.0 6.0 0.00 0.00 0.00 76 1011.1
20181020004520 48 225 2.0 5.0 0.00 0.00 0.00 78 1011.4
20181020003032 47 246 2.0 3.0 0.00 0.00 0.00 81 1011.4
20181020001514 47 180 0.0 0.0 0.00 0.00 0.00 81 1011.4
20181020000015 48 180 0.0 1.0 0.00 0.00 0.00 80 1011.7
20181019234512 48 180 0.0 2.0 0.00 0.00 0.00 79 1011.9
20181019233009 47 180 2.0 3.0 0.00 0.00 0.00 81 1012.3
20181019231513 47 180 1.0 3.0 0.00 0.00 0.00 78 1012.7
20181019230004 48 180 1.0 4.0 0.00 0.00 0.00 78 1012.8
20181019224700 48 174 2.0 3.0 0.00 0.00 0.00 78 1013.1
20181019223229 49 174 3.0 4.0 0.00 0.00 0.00 76 1013.0
20181019221643 50 212 2.0 4.0 0.00 0.00 0.00 74 1013.1
20181019220205 51 242 1.0 3.0 0.00 0.00 0.00 69 1013.0
20181019214648 52 187 1.0 2.0 0.00 0.00 0.00 68 1013.2
20181019213112 53 360 1.0 4.0 0.00 0.00 0.00 65 1013.2
20181019211650 54 210 1.0 8.0 0.00 0.00 0.00 64 1013.3
20181019210204 55 217 1.0 3.0 0.00 0.00 0.00 61 1013.3
20181019204603 56 194 1.0 4.0 0.00 0.00 0.00 58 1013.3
20181019203109 56 278 2.0 6.0 0.00 0.00 0.00 57 1013.7
20181019201607 56 198 3.0 6.0 0.00 0.00 0.00 57 1013.6
20181019200138 55 235 3.0 7.0 0.00 0.00 0.00 57 1013.8
20181019194624 54 221 3.0 7.0 0.00 0.00 0.00 61 1014.0
20181019193114 54 263 4.0 8.0 0.00 0.00 0.00 58 1014.4
20181019191608 53 178 3.0 7.0 0.00 0.00 0.00 59 1014.3
20181019190049 53 214 3.0 9.0 0.00 0.00 0.00 60 1014.6
20181019184621 52 248 4.0 9.0 0.00 0.00 0.00 57 1014.7
20181019183043 52 260 4.0 8.0 0.00 0.00 0.00 59 1015.2
20181019181556 51 180 3.0 9.0 0.00 0.00 0.00 59 1015.4
20181019180030 51 252 4.0 9.0 0.00 0.00 0.00 61 1015.5
20181019174523 50 360 4.0 8.0 0.00 0.00 0.00 61 1015.9
20181019173037 49 285 3.0 9.0 0.00 0.00 0.00 65 1016.2
20181019171523 48 275 4.0 8.0 0.00 0.00 0.00 65 1016.5
20181019170016 47 215 3.0 8.0 0.00 0.00 0.00 69 1017.0
20181019164522 46 209 4.0 9.0 0.00 0.00 0.00 67 1017.5
20181019163003 45 234 4.0 11.0 0.00 0.00 0.00 68 1017.9
20181019161633 45 170 2.0 7.0 0.00 0.00 0.00 70 1018.4
20181019160152 44 301 4.0 8.0 0.00 0.00 0.00 70 1018.8
20181019154610 43 188 1.0 6.0 0.00 0.00 0.00 72 1019.1
20181019153130 42 244 3.0 7.0 0.00 0.00 0.00 72 1019.3
20181019151617 41 190 3.0 8.0 0.00 0.00 0.00 75 1019.4
20181019150110 40 202 2.0 5.0 0.00 0.00 0.00 77 1019.6
20181019144549 39 162 1.0 5.0 0.00 0.00 0.00 77 1019.6
20181019143045 38 275 1.0 5.0 0.00 0.00 0.00 79 1020.0
20181019141558 38 277 1.0 5.0 0.00 0.00 0.00 78 1020.1
20181019140036 37 174 2.0 5.0 0.00 0.00 0.00 79 1020.4
20181019134528 37 207 2.0 6.0 0.00 0.00 0.00 80 1020.7
20181019133035 36 216 2.0 5.0 0.00 0.00 0.00 82 1020.9
20181019131518 36 262 4.0 9.0 0.00 0.00 0.00 81 1021.0
20181019130022 35 199 3.0 8.0 0.00 0.00 0.00 83 1021.2
20181019124556 35 173 4.0 7.0 0.00 0.00 0.00 84 1021.4
20181019123011 34 181 4.0 8.0 0.00 0.01 0.00 86 1019.9
20181019121515 33 213 4.0 7.0 0.00 0.00 0.00 88 1021.5
20181019120010 33 198 3.0 0.0 0.00 0.01 0.00 88 1020.0
20181019115011 32 190 3.0 0.0 0.00 0.01 0.00 87 1019.9
20181019114011 32 184 4.0 5.0 0.00 0.01 0.00 87 1019.9
20181019113034 32 202 3.0 6.0 0.00 0.00 0.00 87 1021.4
20181019113011 32 202 2.0 0.0 0.00 0.01 0.00 86 1019.8
20181019112010 32 187 4.0 0.0 0.00 0.01 0.00 86 1019.9
20181019111647 32 180 3.0 6.0 0.00 0.00 0.00 86 1021.5
20181019111011 32 188 4.0 0.0 0.00 0.01 0.00 87 1020.0
20181019110034 0 0.0 0.0 0.00 0.01 0.00
20181019104702 31 191 2.0 3.0 0.00 0.00 0.00 87 1021.6
20181019103103 31 191 1.0 4.0 0.00 0.00 0.00 85 1021.6
20181019101557 31 190 2.0 3.0 0.00 0.00 0.00 85 1021.7
20181019100219 31 194 1.0 3.0 0.00 0.00 0.00 83 1021.7
20181019094605 32 194 1.0 3.0 0.00 0.00 0.00 81 1021.8
20181019093056 32 194 1.0 3.0 0.00 0.00 0.00 80 1021.9
20181019091553 32 194 2.0 5.0 0.00 0.00 0.00 80 1021.8
20181019090112 32 192 1.0 5.0 0.00 0.00 0.00 79 1021.9
20181019084615 33 191 1.0 4.0 0.00 0.00 0.00 74 1022.1
20181019083113 33 186 2.0 3.0 0.00 0.00 0.00 73 1022.1
20181019081535 33 208 2.0 6.0 0.00 0.00 0.00 71 1022.2
20181019074554 34 242 2.0 5.0 0.00 0.00 0.00 70 1022.7
20181019073052 34 193 2.0 7.0 0.00 0.00 0.00 71 1022.7
20181019071520 33 194 3.0 6.0 0.00 0.00 0.00 71 1022.7
20181019070036 33 185 2.0 6.0 0.00 0.00 0.00 72 1022.7
20181019064535 33 177 1.0 5.0 0.00 0.00 0.00 72 1022.7
20181019063020 33 182 1.0 5.0 0.00 0.00 0.00 73 1022.8
20181019061524 33 199 1.0 4.0 0.00 0.00 0.00 69 1023.0
20181019060016 34 140 1.0 2.0 0.00 0.00 0.00 68 1023.2
20181019054531 34 140 1.0 3.0 0.00 0.00 0.00 64 1023.3
20181019053008 33 171 1.0 5.0 0.00 0.00 0.00 65 1023.2
20181019051521 34 215 0.0 3.0 0.00 0.00 0.00 68 1023.2
20181019050007 33 231 1.0 4.0 0.00 0.00 0.00 64 1023.3
20181019044505 33 250 1.0 4.0 0.00 0.00 0.00 66 1023.3
20181019043128 33 150 0.0 4.0 0.00 0.00 0.00 64 1023.3
20181019041643 33 237 0.0 5.0 0.00 0.00 0.00 63 1023.1
20181019040141 33 305 1.0 4.0 0.00 0.00 0.00 63 1023.3
20181019034635 32 154 0.0 4.0 0.00 0.00 0.00 67 1023.3
20181019033155 32 184 2.0 5.0 0.00 0.00 0.00 68 1023.2
20181019031658 31 198 2.0 5.0 0.00 0.00 0.00 69 1023.1
20181019030154 30 140 0.0 1.0 0.00 0.00 0.00 72 1023.3
20181019024644 31 140 0.0 2.0 0.00 0.00 0.00 70 1023.1
20181019023130 31 115 0.0 2.0 0.00 0.00 0.00 70 1023.0
20181019021617 31 115 0.0 2.0 0.00 0.00 0.00 67 1023.1
20181019020117 31 160 2.0 3.0 0.00 0.00 0.00 71 1023.0
20181019014606 31 159 0.0 4.0 0.00 0.00 0.00 72 1023.0
20181019013116 31 38 0.0 2.0 0.00 0.00 0.00 71 1023.0
20181019011649 31 38 0.0 4.0 0.00 0.00 0.00 69 1022.9
20181019010141 32 164 0.0 2.0 0.00 0.00 0.00 69 1023.0